| time (UTC) | temp F | wind direction | speed MPH | gust MPH | rain 1hr in | rain 24hr in | rain mn in | humidity % | barometer mb |
| 20260906124509 | 76 | 336 | 6.0 | 13.0 | 0.00 | 0.00 | 0.00 | 41 | 1024.0 |
| 20260906123010 | 76 | 317 | 9.0 | 18.0 | 0.00 | 0.00 | 0.00 | 42 | 1024.0 |
| 20260906121508 | 76 | 331 | 8.0 | 12.0 | 0.00 | 0.00 | 0.00 | 43 | 1024.2 |
| 20260906120010 | 76 | 344 | 7.0 | 13.0 | 0.00 | 0.00 | 0.00 | 40 | 1024.2 |
| 20260906114503 | 75 | 308 | 6.0 | 14.0 | 0.00 | 0.00 | 0.00 | 44 | 1024.5 |
| 20260906113003 | 75 | 314 | 8.0 | 14.0 | 0.00 | 0.00 | 0.00 | 45 | 1024.8 |
| 20260906111558 | 75 | 311 | 5.0 | 14.0 | 0.00 | 0.00 | 0.00 | 47 | 1024.8 |
| 20260906110056 | 74 | 334 | 8.0 | 13.0 | 0.00 | 0.00 | 0.00 | 48 | 1024.9 |
| 20260906104554 | 73 | 304 | 8.0 | 17.0 | 0.00 | 0.00 | 0.00 | 49 | 1025.0 |
| 20260906103056 | 73 | 279 | 7.0 | 15.0 | 0.00 | 0.00 | 0.00 | 50 | 1025.2 |
| 20260906101548 | 72 | 339 | 7.0 | 14.0 | 0.00 | 0.00 | 0.00 | 53 | 1025.2 |
| 20260906100044 | 72 | 276 | 7.0 | 14.0 | 0.00 | 0.00 | 0.00 | 54 | 1025.6 |
| 20260906094541 | 71 | 302 | 8.0 | 14.0 | 0.00 | 0.00 | 0.00 | 54 | 1025.8 |
| 20260906093044 | 70 | 317 | 4.0 | 10.0 | 0.00 | 0.00 | 0.00 | 57 | 1025.8 |
| 20260906091535 | 69 | 356 | 8.0 | 13.0 | 0.00 | 0.00 | 0.00 | 58 | 1025.9 |
| 20260906090031 | 69 | 315 | 8.0 | 13.0 | 0.00 | 0.00 | 0.00 | 60 | 1025.8 |
| 20260906084527 | 68 | 317 | 7.0 | 13.0 | 0.00 | 0.00 | 0.00 | 61 | 1025.9 |
| 20260906083024 | 66 | 264 | 8.0 | 13.0 | 0.00 | 0.00 | 0.00 | 64 | 1025.9 |
| 20260906081525 | 65 | 292 | 7.0 | 13.0 | 0.00 | 0.00 | 0.00 | 65 | 1025.9 |
| 20260906080017 | 64 | 279 | 9.0 | 12.0 | 0.00 | 0.00 | 0.00 | 67 | 1026.1 |
| 20260906074512 | 63 | 271 | 5.0 | 13.0 | 0.00 | 0.00 | 0.00 | 69 | 1026.0 |
| 20260906073008 | 62 | 325 | 9.0 | 12.0 | 0.00 | 0.00 | 0.00 | 70 | 1026.3 |
| 20260906071606 | 60 | 284 | 8.0 | 12.0 | 0.00 | 0.00 | 0.00 | 74 | 1026.3 |
| 20260906070100 | 58 | 303 | 6.0 | 10.0 | 0.00 | 0.00 | 0.00 | 77 | 1026.4 |
| 20260906064557 | 56 | 261 | 5.0 | 9.0 | 0.00 | 0.00 | 0.00 | 82 | 1026.2 |
| 20260906063053 | 54 | 281 | 4.0 | 8.0 | 0.00 | 0.00 | 0.00 | 84 | 1026.3 |
| 20260906061551 | 53 | 273 | 3.0 | 8.0 | 0.00 | 0.00 | 0.00 | 85 | 1026.2 |
| 20260906060057 | 53 | 273 | 4.0 | 10.0 | 0.00 | 0.00 | 0.00 | 86 | 1026.1 |
| 20260906054552 | 52 | 289 | 5.0 | 10.0 | 0.00 | 0.00 | 0.00 | 86 | 1026.0 |
| 20260906053050 | 51 | 300 | 4.0 | 8.0 | 0.00 | 0.00 | 0.00 | 86 | 1026.1 |
| 20260906051600 | 51 | 292 | 4.0 | 8.0 | 0.00 | 0.00 | 0.00 | 86 | 1026.2 |
| 20260906050048 | 51 | 283 | 4.0 | 7.0 | 0.00 | 0.00 | 0.00 | 86 | 1026.3 |
| 20260906044546 | 51 | 278 | 3.0 | 8.0 | 0.00 | 0.00 | 0.00 | 86 | 1026.2 |
| 20260906043045 | 52 | 279 | 5.0 | 9.0 | 0.00 | 0.00 | 0.00 | 85 | 1026.1 |
| 20260906041544 | 52 | 270 | 6.0 | 9.0 | 0.00 | 0.00 | 0.00 | 85 | 1026.2 |
| 20260906040042 | 52 | 267 | 7.0 | 10.0 | 0.00 | 0.00 | 0.00 | 85 | 1026.5 |
| 20260906034541 | 52 | 275 | 8.0 | 10.0 | 0.00 | 0.00 | 0.00 | 84 | 1026.4 |
| 20260906033039 | 52 | 270 | 4.0 | 8.0 | 0.00 | 0.00 | 0.00 | 84 | 1026.6 |
| 20260906031538 | 53 | 288 | 4.0 | 7.0 | 0.00 | 0.00 | 0.00 | 83 | 1026.5 |
| 20260906030034 | 53 | 285 | 3.0 | 8.0 | 0.00 | 0.00 | 0.00 | 83 | 1026.6 |
| 20260906024533 | 53 | 279 | 4.0 | 7.0 | 0.00 | 0.00 | 0.00 | 82 | 1026.5 |
| 20260906023032 | 54 | 272 | 6.0 | 10.0 | 0.00 | 0.00 | 0.00 | 82 | 1026.4 |
| 20260906021539 | 54 | 288 | 6.0 | 9.0 | 0.00 | 0.00 | 0.00 | 81 | 1026.6 |
| 20260906020027 | 54 | 265 | 6.0 | 9.0 | 0.00 | 0.00 | 0.00 | 81 | 1026.6 |
| 20260906014527 | 54 | 271 | 5.0 | 9.0 | 0.00 | 0.00 | 0.00 | 80 | 1026.7 |
| 20260906013034 | 54 | 262 | 4.0 | 8.0 | 0.00 | 0.00 | 0.00 | 80 | 1026.6 |
| 20260906011519 | 54 | 281 | 4.0 | 8.0 | 0.00 | 0.00 | 0.00 | 80 | 1026.7 |
| 20260906010019 | 55 | 269 | 5.0 | 8.0 | 0.00 | 0.00 | 0.00 | 79 | 1026.5 |
| 20260906004517 | 55 | 269 | 3.0 | 8.0 | 0.00 | 0.00 | 0.00 | 79 | 1026.6 |
| 20260906003021 | 55 | 270 | 4.0 | 6.0 | 0.00 | 0.00 | 0.00 | 79 | 1026.6 |
| 20260906001514 | 55 | 272 | 3.0 | 6.0 | 0.00 | 0.00 | 0.00 | 79 | 1026.3 |
| 20260906000012 | 54 | 271 | 3.0 | 5.0 | 0.00 | 0.00 | 0.00 | 79 | 1026.2 |
| 20260905234509 | 55 | 267 | 2.0 | 3.0 | 0.00 | 0.00 | 0.00 | 79 | 1026.3 |
| 20260905233012 | 55 | 266 | 2.0 | 4.0 | 0.00 | 0.00 | 0.00 | 79 | 1026.1 |
| 20260905231507 | 55 | 268 | 3.0 | 5.0 | 0.00 | 0.00 | 0.00 | 79 | 1025.8 |
| 20260905230008 | 55 | 262 | 3.0 | 6.0 | 0.00 | 0.00 | 0.00 | 79 | 1025.9 |
| 20260905224508 | 55 | 246 | 2.0 | 4.0 | 0.00 | 0.00 | 0.00 | 78 | 1025.8 |
| 20260905223101 | 55 | 244 | 0.0 | 0.0 | 0.00 | 0.00 | 0.00 | 77 | 1026.1 |
| 20260905221602 | 56 | 244 | 0.0 | 3.0 | 0.00 | 0.00 | 0.00 | 77 | 1026.0 |
| 20260905220057 | 56 | 243 | 2.0 | 4.0 | 0.00 | 0.00 | 0.00 | 77 | 1025.9 |
| 20260905214556 | 56 | 210 | 2.0 | 4.0 | 0.00 | 0.00 | 0.00 | 76 | 1025.8 |
| 20260905213059 | 56 | 204 | 2.0 | 3.0 | 0.00 | 0.00 | 0.00 | 75 | 1026.0 |
| 20260905211602 | 57 | 203 | 0.0 | 2.0 | 0.00 | 0.00 | 0.00 | 74 | 1026.0 |
| 20260905210108 | 58 | 202 | 2.0 | 4.0 | 0.00 | 0.00 | 0.00 | 73 | 1025.9 |
| 20260905204553 | 58 | 178 | 2.0 | 3.0 | 0.00 | 0.00 | 0.00 | 73 | 1025.9 |
| 20260905203051 | 58 | 176 | 1.0 | 3.0 | 0.00 | 0.00 | 0.00 | 72 | 1025.9 |
| 20260905201550 | 58 | 175 | 2.0 | 4.0 | 0.00 | 0.00 | 0.00 | 72 | 1025.6 |
| 20260905200055 | 59 | 147 | 2.0 | 4.0 | 0.00 | 0.00 | 0.00 | 71 | 1025.6 |
| 20260905194548 | 59 | 104 | 1.0 | 3.0 | 0.00 | 0.00 | 0.00 | 68 | 1025.3 |
| 20260905193051 | 60 | 104 | 0.0 | 3.0 | 0.00 | 0.00 | 0.00 | 67 | 1025.4 |
| 20260905191548 | 61 | 104 | 1.0 | 3.0 | 0.00 | 0.00 | 0.00 | 64 | 1025.3 |
| 20260905190056 | 62 | 104 | 0.0 | 2.0 | 0.00 | 0.00 | 0.00 | 62 | 1025.1 |
| 20260905184546 | 63 | 104 | 2.0 | 4.0 | 0.00 | 0.00 | 0.00 | 61 | 1025.0 |
| 20260905183052 | 64 | 104 | 2.0 | 6.0 | 0.00 | 0.00 | 0.00 | 60 | 1024.9 |
| 20260905181547 | 65 | 117 | 2.0 | 4.0 | 0.00 | 0.00 | 0.00 | 58 | 1024.8 |
| 20260905180045 | 66 | 111 | 2.0 | 4.0 | 0.00 | 0.00 | 0.00 | 56 | 1024.9 |
| 20260905174542 | 68 | 119 | 3.0 | 8.0 | 0.00 | 0.00 | 0.00 | 54 | 1024.8 |
| 20260905173040 | 69 | 108 | 4.0 | 9.0 | 0.00 | 0.00 | 0.00 | 52 | 1024.6 |
| 20260905171546 | 70 | 130 | 4.0 | 11.0 | 0.00 | 0.00 | 0.00 | 51 | 1024.5 |
| 20260905170039 | 69 | 133 | 6.0 | 10.0 | 0.00 | 0.00 | 0.00 | 51 | 1024.5 |
| 20260905164537 | 69 | 121 | 4.0 | 13.0 | 0.00 | 0.00 | 0.00 | 53 | 1024.4 |
| 20260905163039 | 70 | 144 | 9.0 | 15.0 | 0.00 | 0.00 | 0.00 | 51 | 1024.3 |
| 20260905161534 | 70 | 130 | 8.0 | 16.0 | 0.00 | 0.00 | 0.00 | 51 | 1024.2 |
| 20260905160034 | 70 | 152 | 11.0 | 17.0 | 0.00 | 0.00 | 0.00 | 50 | 1024.0 |
| 20260905154530 | 70 | 109 | 7.0 | 14.0 | 0.00 | 0.00 | 0.00 | 51 | 1023.9 |
| 20260905153039 | 70 | 123 | 10.0 | 14.0 | 0.00 | 0.00 | 0.00 | 52 | 1023.7 |
| 20260905151529 | 70 | 148 | 9.0 | 16.0 | 0.00 | 0.00 | 0.00 | 53 | 1023.6 |
| 20260905150028 | 70 | 103 | 11.0 | 15.0 | 0.00 | 0.00 | 0.00 | 51 | 1023.7 |
| 20260905144528 | 70 | 86 | 8.0 | 13.0 | 0.00 | 0.00 | 0.00 | 53 | 1023.7 |
| 20260905143028 | 70 | 156 | 8.0 | 17.0 | 0.00 | 0.00 | 0.00 | 53 | 1023.8 |
| 20260905141526 | 70 | 152 | 7.0 | 16.0 | 0.00 | 0.00 | 0.00 | 53 | 1023.8 |
| 20260905140024 | 70 | 119 | 9.0 | 17.0 | 0.00 | 0.00 | 0.00 | 53 | 1023.8 |
| 20260905134523 | 70 | 129 | 10.0 | 16.0 | 0.00 | 0.00 | 0.00 | 53 | 1023.7 |
| 20260905133022 | 70 | 121 | 7.0 | 16.0 | 0.00 | 0.00 | 0.00 | 54 | 1023.7 |
| 20260905131521 | 70 | 129 | 6.0 | 16.0 | 0.00 | 0.00 | 0.00 | 53 | 1023.6 |
| 20260905130019 | 70 | 117 | 8.0 | 20.0 | 0.00 | 0.00 | 0.00 | 56 | 1023.7 |